Lapse_Rate
1.4 1.1 2.3 2.0 2.3 2.4 2.8 3.7 3.7 4.2 4.6 5.0 5.1 5.3 5.8 5.6 5.4 5.3 5.3 5.3 5.3 5.8 6.0 6.0 6.1 6.4 6.1 5.4 5.4 5.1 4.7 4.0 4.2 4.6 5.0 5.5 6.3 6.7 6.4 5.9 6.1 6.4 6.1
1.3 1.2 2.0 2.1 2.3 2.5 2.9 3.9 4.1 4.5 4.9 5.3 5.3 5.3 5.6 5.3 5.2 5.0 5.4 5.4 5.1 5.8 5.9 5.6 5.8 6.0 5.4 5.0 4.8 4.4 4.0 4.2 4.7 5.2 6.4 6.5 6.2 6.2 5.9 5.5 5.7 6.1 6.3
1.4 1.7 2.2 2.3 2.4 2.6 3.2 4.1 4.6 4.9 5.3 5.6 5.6 5.6 5.8 5.3 4.9 4.9 5.4 5.6 5.5 5.8 5.7 5.5 5.3 5.2 5.0 4.5 4.4 4.6 4.6 5.0 5.5 5.4 5.5 6.2 6.5 6.4 5.9 5.8 5.9 6.0 6.3
1.4 2.0 1.8 2.4 2.7 2.9 3.5 4.2 4.7 5.4 5.5 5.8 5.9 5.8 5.9 5.6 5.0 4.8 5.1 5.4 5.4 5.4 5.5 5.3 4.8 4.8 4.6 4.4 4.7 5.2 5.4 6.0 6.4 6.4 6.0 6.1 6.7 6.5 6.0 5.8 5.9 6.0 6.8
3.0 2.5 2.2 2.4 2.7 3.3 3.7 4.3 4.9 5.6 5.5 5.8 6.1 6.1 6.3 5.9 5.0 5.0 5.2 5.3 5.7 5.6 5.5 4.9 4.7 4.7 4.3 4.5 5.2 5.7 6.0 7.2 6.4 6.1 5.8 5.5 6.6 6.5 5.2 5.0 5.5 5.5 5.5
3.8 2.5 2.1 2.5 2.9 3.4 3.9 4.4 4.9 5.6 5.7 5.6 6.3 6.3 6.3 6.5 5.6 5.3 5.5 5.6 5.8 6.0 5.3 4.6 4.5 4.4 5.1 5.5 5.7 6.4 6.8 6.6 6.2 6.4 6.7 6.9 5.6 5.5 5.2 4.9 4.7 4.8 4.8
2.5 2.6 2.6 2.7 3.2 3.6 4.3 4.6 5.1 5.4 5.3 5.8 6.5 6.4 6.1 5.9 5.5 5.2 5.3 5.3 5.4 5.6 4.7 4.2 4.2 5.0 5.5 5.5 6.3 6.9 7.0 6.9 5.9 6.1 6.5 5.8 5.2 5.1 5.1 4.8 4.7 4.7 4.5
2.7 2.9 3.5 3.2 3.6 3.9 4.6 4.8 4.9 5.0 5.2 5.6 6.1 5.9 5.6 5.1 4.7 4.9 4.8 5.1 5.1 5.2 3.8 3.7 4.2 5.1 5.4 5.9 6.4 7.2 7.1 5.9 4.9 5.7 5.3 4.9 5.2 5.0 4.8 4.4 4.5 4.4 4.1
3.2 3.0 2.5 3.1 4.0 4.4 4.7 4.9 4.5 4.8 4.9 4.8 4.6 5.8 5.5 4.8 4.8 4.7 4.6 4.9 5.0 4.6 3.5 3.9 4.5 5.3 5.2 5.6 6.3 6.3 5.6 5.6 6.0 5.5 5.2 4.9 5.2 5.1 4.8 4.3 4.2 4.0 4.4
3.8 3.3 2.4 2.6 3.4 3.8 4.4 4.5 4.4 4.6 4.7 4.6 4.5 5.1 5.0 5.1 5.4 5.6 5.2 5.1 5.7 4.6 4.0 4.2 5.0 5.2 5.2 5.7 5.9 6.2 5.9 5.1 5.1 4.8 4.7 5.3 5.1 5.3 4.6 4.5 4.1 4.2 5.4
4.7 4.1 3.9 3.3 3.8 3.8 3.8 4.5 4.6 4.5 4.6 4.4 4.1 4.7 4.7 4.6 5.2 5.2 5.2 5.6 5.6 5.2 4.8 4.7 5.1 5.2 5.5 5.8 6.1 6.2 5.5 4.8 4.5 4.4 4.8 5.3 5.1 5.3 4.7 4.2 4.0 5.0 5.1
4.4 4.5 4.7 4.6 4.7 4.7 4.7 4.7 4.6 5.1 4.6 4.3 4.2 4.5 4.2 4.8 4.9 5.2 4.6 4.6 5.0 5.2 5.0 4.7 5.3 5.6 5.4 6.2 6.3 6.1 5.5 4.1 4.1 4.1 4.8 5.3 5.5 4.8 4.4 4.1 4.4 4.9 4.5
3.2 4.3 4.3 5.9 5.0 5.4 4.2 4.4 4.7 4.7 4.5 4.1 4.1 4.5 4.8 4.9 5.1 4.4 4.6 5.0 5.0 4.9 4.5 4.7 5.0 5.4 6.2 6.5 5.1 5.1 4.5 4.0 4.1 4.3 4.9 5.3 5.1 4.8 4.2 4.1 4.3 4.6 3.8
3.6 3.4 4.8 5.9 5.0 4.6 4.5 4.5 5.0 4.7 5.1 4.5 4.5 4.6 4.6 5.1 4.9 5.1 5.2 5.0 5.5 4.1 3.6 4.0 4.8 5.9 6.4 6.1 5.9 5.6 4.4 4.0 4.0 3.8 5.2 5.4 5.0 4.8 4.7 5.0 4.3 4.5 3.4
3.4 4.0 4.6 5.7 4.7 4.6 5.0 4.8 4.6 4.8 4.8 4.2 4.5 4.7 4.3 5.2 4.6 5.9 5.6 4.9 4.6 4.5 4.3 4.1 5.0 5.3 5.4 5.5 6.0 5.8 5.4 5.0 4.1 4.4 4.7 5.1 5.2 5.4 5.5 5.3 4.8 4.2 3.4
3.6 3.4 4.2 5.4 4.4 4.2 5.4 4.8 4.2 4.4 4.1 4.1 4.5 4.5 3.7 5.8 4.9 5.7 5.0 4.8 4.9 4.5 4.8 4.7 5.3 4.6 5.0 5.3 6.1 6.0 5.7 5.0 4.1 3.6 4.2 5.0 5.1 5.6 5.3 5.3 4.6 4.0 3.5
4.7 3.3 4.3 4.6 4.2 3.7 4.7 4.9 4.2 4.0 4.2 4.0 4.0 4.7 3.9 4.7 5.6 5.4 4.8 5.0 5.4 5.1 5.3 5.4 5.0 4.9 5.1 5.6 5.5 6.3 5.9 5.0 4.1 4.4 4.2 4.9 5.1 5.2 5.2 5.1 4.7 4.1 3.5
4.5 4.4 4.7 6.0 4.3 3.3 4.3 4.8 4.8 4.2 4.3 4.2 4.4 4.1 3.8 4.6 6.5 6.0 5.4 5.4 5.9 6.0 4.5 4.3 4.6 5.0 4.6 5.3 5.5 5.9 6.1 5.5 4.5 4.4 4.0 4.3 4.7 4.7 4.7 4.8 4.4 3.7 3.3
4.9 4.8 4.8 4.9 4.3 3.3 4.2 4.4 4.8 4.6 3.8 4.2 4.2 4.2 4.3 5.5 5.5 6.3 6.2 6.5 6.3 4.8 4.3 4.6 4.9 4.8 4.6 5.3 5.7 5.5 5.7 5.2 5.4 5.0 3.9 4.2 4.2 4.2 4.6 4.6 4.2 3.4 3.0
2.7 4.1 4.4 4.5 4.4 3.9 3.1 4.3 4.8 4.7 4.3 4.2 3.9 3.9 4.2 5.7 4.2 5.2 4.8 6.6 5.6 4.6 4.4 4.2 4.2 4.3 5.5 5.5 5.3 4.2 4.3 4.7 5.6 6.3 6.2 5.4 4.0 4.0 4.5 4.4 3.8 3.2 3.0
2.1 2.0 4.8 4.3 4.5 4.6 3.7 4.8 4.8 5.0 4.4 4.2 3.8 4.7 3.7 6.0 6.9 6.9 3.9 4.1 4.2 4.9 4.6 4.0 3.7 4.0 4.1 3.9 3.6 3.5 2.9 3.1 3.6 5.1 6.2 6.4 5.3 4.1 3.9 3.8 3.4 2.9 2.8
0.2 3.0 4.6 3.3 3.9 5.2 3.7 4.4 5.4 5.2 4.7 4.3 4.2 4.2 4.9 5.1 6.2 5.6 4.6 6.3 4.6 4.6 4.3 3.7 4.0 4.3 3.5 5.0 4.4 4.0 4.3 4.3 4.2 3.7 4.7 5.8 5.6 4.3 3.9 3.2 2.9 2.6 2.4
2.2 0.8 5.4 3.1 3.4 4.6 3.8 4.1 4.9 4.9 5.0 4.6 4.5 4.3 4.7 4.9 6.1 6.4 4.9 5.8 4.8 4.7 4.4 4.0 4.1 3.9 3.0 5.0 5.4 3.9 4.7 5.0 3.6 4.4 3.4 3.9 4.9 3.3 4.4 3.7 2.7 1.7 1.9
2.8 1.2 0.1 5.4 3.0 3.7 3.8 4.2 5.1 5.4 5.3 5.5 4.9 4.9 4.6 4.8 5.4 4.9 5.0 4.2 4.8 4.5 4.9 4.2 3.8 2.9 2.8 4.2 5.2 5.5 3.8 2.3 4.1 4.7 3.5 2.9 3.2 3.8 2.8 3.2 3.2 2.1 1.9
3.1 1.9 -0.2 3.2 4.4 3.4 4.3 4.0 4.0 5.7 5.4 5.6 5.3 5.0 4.0 4.1 4.4 5.4 4.8 3.8 4.8 5.9 5.0 4.9 4.2 3.1 3.3 3.2 3.8 5.3 3.7 3.7 3.2 1.5 2.6 2.2 2.6 2.7 3.0 3.6 4.4 3.6 2.7
3.8 2.1 0.9 1.4 3.5 3.9 3.5 3.7 3.5 4.7 5.3 5.1 4.9 4.2 4.8 4.4 4.7 5.3 5.6 4.9 4.8 5.7 5.3 5.0 3.8 3.5 3.4 3.7 3.1 3.6 4.1 3.9 3.5 2.8 1.4 1.4 1.7 1.8 2.2 2.9 2.8 3.2 3.5
Wind_Speed
7 12 16 17 18 18 16 15 19 16 18 19 21 25 27 29 30 28 26 26 26 24 24 24 23 23 27 29 28 28 28 29 26 25 23 23 23 25 25 24 23 22 25
15 15 16 18 19 19 17 15 19 17 18 19 21 25 27 29 29 28 27 27 26 24 24 25 24 24 27 28 27 27 29 27 24 26 27 28 27 27 25 24 22 22 24
15 16 17 19 19 19 18 15 17 18 19 20 21 25 26 28 29 28 26 25 27 25 25 24 24 24 26 26 25 27 28 26 26 27 25 21 22 24 24 23 22 22 22
16 15 16 18 18 18 18 16 17 19 21 21 21 24 25 26 28 27 25 26 26 26 24 24 23 24 23 22 22 24 23 22 27 24 19 19 21 23 23 22 21 22 22
16 17 17 18 18 18 17 16 18 18 21 21 22 25 26 27 28 26 25 25 27 24 24 24 22 21 19 20 23 23 21 18 26 23 22 19 17 21 22 21 18 18 18
17 18 19 18 18 18 17 17 19 19 23 23 23 25 27 27 29 26 25 27 26 24 23 22 21 17 21 20 17 16 17 19 24 21 20 21 19 20 20 19 19 19 19
14 16 19 19 17 18 17 18 20 22 23 25 23 25 25 27 26 26 27 26 26 24 24 20 18 17 18 18 16 14 14 23 21 20 19 19 19 19 19 19 20 20 20
16 12 16 17 16 18 17 19 21 23 23 25 26 27 26 28 26 24 26 26 24 23 23 18 16 17 16 15 13 12 15 25 25 20 18 18 19 19 19 20 19 20 21
15 13 11 11 13 15 18 19 23 24 24 26 28 26 24 25 26 26 26 26 23 22 22 18 17 18 15 12 11 17 32 27 22 19 17 16 18 18 19 19 19 20 20
12 13 10 10 11 10 13 21 24 25 26 27 25 23 22 20 22 26 28 28 24 21 21 18 17 17 14 9 12 26 28 27 21 20 16 16 19 17 18 19 18 19 19
9 11 11 10 9 11 12 19 23 26 27 28 27 22 21 13 17 25 24 26 25 24 22 21 19 17 15 10 18 25 23 20 20 17 15 18 18 17 18 18 18 18 18
11 11 11 10 10 12 13 17 18 21 20 20 20 17 15 15 17 19 23 21 17 21 22 20 21 18 13 11 17 19 18 20 18 16 16 18 17 18 18 17 17 17 18
15 9 11 10 11 12 10 13 13 15 15 17 19 16 16 16 17 17 18 18 18 19 16 17 16 13 11 11 15 16 20 20 17 16 17 17 17 17 17 17 17 17 17
16 15 12 12 12 11 10 7 11 8 13 12 17 20 12 11 12 13 13 15 18 14 12 12 11 13 9 17 19 17 19 18 16 14 16 15 15 16 17 16 17 16 16
16 14 12 11 13 12 12 8 9 9 9 15 18 19 13 13 9 14 13 14 15 15 15 11 11 9 10 13 17 19 18 19 17 14 14 15 15 16 16 16 16 15 15
19 18 16 15 15 14 11 13 10 9 14 16 15 17 13 19 12 11 10 11 13 14 16 14 11 6 8 13 14 17 17 18 15 15 16 16 14 14 15 15 15 15 14
18 21 18 18 17 18 15 11 10 9 15 10 15 16 13 13 17 14 9 8 14 16 15 15 10 9 9 11 9 15 17 17 16 14 17 16 14 14 14 13 13 14 14
19 23 19 16 18 18 16 12 9 10 12 11 13 14 11 9 22 15 9 10 16 17 12 8 7 7 8 8 8 8 12 15 15 15 15 17 18 15 14 13 13 13 13
20 22 20 18 20 18 17 13 11 12 10 13 15 14 13 11 9 16 10 14 16 11 7 8 8 10 8 8 7 6 7 8 13 14 14 15 17 19 17 15 13 13 12
19 22 23 16 20 17 13 11 10 10 10 14 12 12 13 11 8 4 8 12 12 8 8 9 11 7 10 9 8 6 4 3 6 6 14 16 15 18 20 18 16 14 13
7 24 22 19 18 15 12 11 11 11 10 10 10 18 17 14 18 13 4 5 7 9 11 12 11 14 7 9 7 5 3 4 3 2 5 11 16 17 20 21 20 17 16
21 21 23 23 20 16 12 12 11 11 9 11 11 16 22 21 16 8 6 10 7 9 13 12 12 8 5 9 5 3 2 2 3 3 2 3 11 15 15 18 20 21 19
24 21 15 22 23 19 18 11 8 9 8 10 13 13 14 21 20 16 7 7 6 9 11 13 13 10 9 7 12 4 3 3 3 3 4 4 4 6 14 17 18 20 23
22 20 19 12 23 20 19 17 16 14 11 10 13 13 11 15 16 24 23 10 9 9 12 11 12 10 11 12 6 5 3 5 4 2 2 4 4 5 7 13 17 20 22
20 19 17 14 16 20 20 20 17 15 11 10 11 16 15 13 19 20 20 5 5 8 10 14 13 11 11 11 8 7 3 3 3 3 3 4 3 5 5 9 14 17 21
19 19 18 19 16 18 22 21 22 21 16 13 15 13 14 13 13 16 18 12 8 14 18 16 15 15 12 11 8 6 4 4 4 3 3 2 4 4 5 7 10 15 20
Wind_Direction
130 145 153 128 123 119 118 128 125 124 124 123 122 120 125 123 124 126 129 129 125 125 121 118 112 111 110 107 106 107 103 98 99 97 96 98 98 95 90 86 84 87 86
141 149 145 131 127 124 125 130 130 129 129 129 126 122 126 123 123 123 125 122 124 126 126 121 118 118 116 112 112 111 106 103 100 97 97 95 94 91 89 85 83 80 81
131 143 138 132 127 127 126 132 133 135 134 135 130 126 129 125 124 122 124 124 122 125 124 121 123 122 120 118 118 117 115 113 103 96 94 94 94 94 92 89 88 86 87
137 142 133 132 130 128 129 136 140 142 138 137 134 131 130 127 124 124 124 126 124 123 123 123 125 127 121 119 119 121 121 122 114 102 93 90 94 96 94 91 87 84 85
137 136 136 136 133 131 132 137 142 145 139 137 134 134 134 129 119 122 124 126 125 125 124 126 131 129 120 122 129 133 134 103 93 90 88 82 94 93 89 88 85 89 89
136 134 134 137 138 135 138 143 144 143 137 133 135 134 133 131 122 120 120 125 126 126 125 133 139 130 138 135 127 126 118 104 94 88 96 96 92 91 92 94 94 94 93
120 131 136 140 143 138 145 147 147 138 130 135 133 132 130 126 123 123 125 124 124 129 131 140 142 145 138 128 132 118 104 109 92 85 89 92 96 103 100 97 96 97 97
121 124 134 142 144 142 149 152 145 138 133 134 133 130 129 126 124 124 124 127 130 130 131 144 149 146 135 133 126 110 111 107 97 97 95 99 105 101 100 100 100 100 101
124 127 127 138 146 147 151 152 143 140 141 138 135 137 133 129 129 131 128 128 129 132 138 154 152 142 143 136 119 92 114 109 108 108 105 104 108 103 104 103 106 105 105
130 133 139 144 140 144 152 148 145 144 143 138 131 134 127 123 127 132 134 137 142 142 154 157 149 152 142 138 93 126 115 102 105 103 109 112 107 108 107 109 108 110 108
134 140 144 148 148 142 139 153 147 145 144 140 131 133 131 136 146 144 147 151 154 158 163 157 153 158 147 129 113 125 108 110 108 110 115 113 113 111 114 113 113 113 112
142 146 153 152 149 142 146 151 148 149 147 148 144 145 149 156 152 153 148 150 164 169 165 150 158 158 149 128 112 110 114 108 107 110 115 119 118 118 117 117 116 115 113
153 155 159 156 144 143 147 151 152 151 153 152 154 159 158 147 146 144 151 169 169 157 154 147 152 163 159 130 115 107 108 106 111 114 121 123 118 122 121 122 121 120 116
165 160 166 156 146 142 151 158 158 158 162 155 162 159 156 153 152 158 160 159 158 155 147 147 165 179 166 129 117 112 112 111 115 118 129 124 125 126 128 127 125 124 122
159 166 169 158 147 148 154 157 155 161 161 156 160 163 150 153 151 157 158 153 155 159 161 161 173 185 130 123 117 118 118 120 126 130 133 131 132 134 132 132 131 129 127
165 168 174 171 149 149 160 164 159 156 153 154 164 169 153 154 148 155 153 159 162 161 167 170 179 150 127 124 117 124 126 123 129 128 135 137 138 137 135 139 137 136 133
172 168 176 167 153 152 159 164 162 155 155 162 167 162 146 154 159 157 160 164 170 166 173 173 170 131 123 129 118 125 124 130 134 133 137 140 140 136 137 142 143 141 140
169 170 173 169 159 154 159 162 167 161 158 163 164 159 146 162 159 159 168 172 179 171 167 159 141 127 130 133 122 127 132 139 144 149 144 140 143 139 139 145 150 150 152
176 171 172 165 162 154 160 161 169 163 157 161 165 172 167 156 151 162 175 180 181 165 149 138 139 134 133 127 124 117 131 147 155 160 162 157 152 150 150 152 155 156 163
168 173 174 163 160 152 158 159 166 169 163 164 164 171 179 168 155 182 171 185 168 146 135 138 137 134 134 129 114 82 62 90 139 166 172 169 164 163 165 161 161 168 176
192 168 172 161 163 149 154 166 169 173 162 160 159 169 163 181 197 201 168 186 161 148 146 148 141 138 113 131 108 77 38 25 19 352 161 161 171 172 172 172 173 178 183
331 176 169 168 166 167 161 167 173 174 167 163 164 167 178 193 226 187 162 200 178 148 155 148 152 142 122 162 129 115 129 350 309 281 258 210 167 172 179 183 181 187 192
0 347 190 166 167 171 162 145 167 161 161 167 172 177 183 183 184 209 232 216 176 154 163 159 163 160 155 186 164 141 150 193 148 222 241 235 188 175 191 187 188 187 196
348 344 346 219 168 169 164 157 164 176 170 171 176 178 181 190 163 191 213 244 188 159 163 170 172 170 162 170 186 230 187 145 169 171 262 244 243 230 199 198 186 188 192
344 347 339 319 200 170 173 170 170 172 176 160 174 174 182 182 182 192 212 227 192 167 180 177 180 174 173 171 192 195 194 205 139 141 174 219 233 235 215 195 196 175 188
348 353 350 344 314 193 179 172 173 169 172 165 171 174 185 186 192 206 209 216 165 184 201 181 176 172 175 178 188 200 193 171 178 145 128 150 204 238 213 197 192 198 183